OBJECT A, 58849

Orbit data source: Space-Track

You're viewing an Uncataloged Satellite

Recently launched and/or uncataloged satellites may have evolving metadata. Metadata may include but not limited to: Owner, Maufacturer, Bus, Motor, and Mission.

OBJECT A, 58849 is a satellite owned by IRSA (IR) in LEO that was launched on Sun, 28 Jan 2024 UTC via an SIMORGH launch vehicle from the Semnan, Iran (SEM). Unknown objects in Earth's orbit typically refer to objects detected orbiting the Earth but have not yet been identified or cataloged. These objects could be anything from previously untracked satellites, spent rocket stages, debris from satellite collisions, or even natural meteoroids temporarily captured by Earth's gravity.

Loading next visibility...
Identifier
58849, 2024-018A
Orbit
LEO
Country
Flag of IRIR / IRAN
Related business
Manufacturer
ISRC
Mission
Operational Civil Technology
Bus & Motor
MEHDA, Unknown motor
Mass
32 kg wet, 32 kg dry
Launch date (UTC)
2024-01-28 (2 years ago)
Launch vehicle
SIMORGH
Launch site
Semnan, Iran (SEM)
Object type
Unknown
Shape & HBR
Box, 0.3 m
Radar Cross Section
0.375 m², Medium (>0.1 m² and < 1m²)

Expand to show TLE details & history
Last TLE update: 9 hours ago

TLE from 9 hours ago
0 OBJECT A
1 58849U 24018A   26171.51003628  .00001098  00000-0  13758-3 0  9996
2 58849  58.6847 218.1732 0436700 109.4716 255.4022 14.39531963125659
Epoch: 2026-06-20T12:14Z
TLE epoch observation values (Epoch: 2026-06-20T12:14:27.134Z)
Latitude
-0.00008°
Longitude
125.83647°
Altitude
852.563 km
Speed
7.38 km/s
True Right ascension
14h 32m 41s
True Declination
0° 00' 00"
Sunlit
Object was in full shadow at epoch
Visualization orbit readout
Latitude
Unknown
Longitude
Unknown
Altitude
Unknown
Speed
Unknown
Apparent Right ascension
Unknown
Apparent Declination
Unknown
Sunlit
N/A
Visualization observer readout
Local Sidereal Time
08:32:28
Azimuth
Unknown
Elevation
Unknown
Doppler factor
Unknown
Orbital elements
Apogee altitude
1,071.162 km
Perigee altitude
447.764 km
Semi-major axis
7,137.6 km
Eccentricity
0.04367
Inclination
58.6847°
RAAN
218.1732°
Arg. of periapsis
109.4716°
True anomaly
250.63079°
Mean anomaly
255.4022°
Eccentric anomaly
253.0093°
Mean motion
3.59927 °/min
Orbital period
100.02 mins
BSTAR
0.00013758
Loading maneuver chart data...
Computing Atmospheric mass density...
Loading historical data...
Loading historical data...
Loading historical data...
Loading historical data...
Loading historical data...
Loading historical data...
Loading historical data...
Other satellites on launch #18 in the year 2024 (2024-01-28 UTC)

Documentation

Showing up to 5 results
|